| time (UTC) | temp F | wind direction | speed MPH | gust MPH | rain 1hr in | rain 24hr in | rain mn in | humidity % | barometer mb |
| 20260506155744 | 40 | 307 | 11.0 | 16.0 | 0.00 | 0.00 | 0.00 | 62 | 1019.2 |
| 20260506143239 | 38 | 315 | 13.0 | 18.0 | 0.00 | 0.00 | 0.00 | 65 | 1019.1 |
| 20260506140738 | 37 | 316 | 13.0 | 19.0 | 0.00 | 0.00 | 0.00 | 67 | 1018.8 |
| 20260506130734 | 36 | 281 | 10.0 | 14.0 | 0.00 | 0.00 | 0.00 | 71 | 1018.1 |
| 20260506122732 | 33 | 287 | 7.0 | 9.0 | 0.00 | 0.00 | 0.00 | 79 | 1017.9 |
| 20260506121731 | 32 | 288 | 6.0 | 7.0 | 0.00 | 0.00 | 0.00 | 81 | 1017.8 |
| 20260506121231 | 32 | 309 | 6.0 | 7.0 | 0.00 | 0.00 | 0.00 | 82 | 1017.8 |
| 20260506120731 | 31 | 302 | 6.0 | 8.0 | 0.00 | 0.00 | 0.00 | 83 | 1017.8 |
| 20260506120230 | 31 | 307 | 5.0 | 6.0 | 0.00 | 0.00 | 0.00 | 84 | 1017.8 |
| 20260506114730 | 30 | 284 | 4.0 | 6.0 | 0.00 | 0.00 | 0.00 | 85 | 1017.5 |
| 20260506113729 | 30 | 295 | 4.0 | 5.0 | 0.00 | 0.00 | 0.00 | 85 | 1017.4 |
| 20260506113229 | 30 | 321 | 4.0 | 5.0 | 0.00 | 0.00 | 0.00 | 86 | 1017.4 |
| 20260506112728 | 30 | 0 | 0.0 | 0.0 | 0.00 | 0.00 | 0.00 | 85 | 1017.4 |
| 20260506112228 | 30 | 255 | 3.0 | 5.0 | 0.00 | 0.00 | 0.00 | 85 | 1017.5 |
| 20260506111728 | 30 | 262 | 0.0 | 2.0 | 0.00 | 0.00 | 0.00 | 85 | 1017.5 |
| 20260506105226 | 30 | 267 | 2.0 | 4.0 | 0.00 | 0.00 | 0.00 | 87 | 1017.4 |
| 20260506103726 | 29 | 276 | 1.0 | 3.0 | 0.00 | 0.00 | 0.00 | 88 | 1017.0 |
| 20260506102725 | 29 | 0 | 0.0 | 0.0 | 0.00 | 0.00 | 0.00 | 87 | 1016.9 |
| 20260506102225 | 29 | 0 | 0.0 | 0.0 | 0.00 | 0.00 | 0.00 | 87 | 1016.9 |
| 20260506101725 | 30 | 0 | 0.0 | 0.0 | 0.00 | 0.00 | 0.00 | 87 | 1016.9 |
| 20260506101224 | 30 | 0 | 0.0 | 0.0 | 0.00 | 0.00 | 0.00 | 87 | 1016.9 |
| 20260506100724 | 30 | 0 | 0.0 | 0.0 | 0.00 | 0.00 | 0.00 | 86 | 1016.9 |
| 20260506100223 | 30 | 0 | 0.0 | 0.0 | 0.00 | 0.00 | 0.00 | 86 | 1017.0 |
| 20260506095723 | 30 | 0 | 0.0 | 0.0 | 0.00 | 0.00 | 0.00 | 86 | 1017.0 |
| 20260506095223 | 30 | 0 | 0.0 | 0.0 | 0.00 | 0.00 | 0.00 | 86 | 1017.0 |
| 20260506094723 | 30 | 0 | 0.0 | 0.0 | 0.00 | 0.00 | 0.00 | 86 | 1017.0 |
| 20260506093722 | 30 | 0 | 0.0 | 0.0 | 0.00 | 0.00 | 0.00 | 85 | 1017.1 |
| 20260506092221 | 30 | 0 | 0.0 | 0.0 | 0.00 | 0.00 | 0.00 | 85 | 1016.9 |
| 20260506091721 | 30 | 0 | 0.0 | 0.0 | 0.00 | 0.00 | 0.00 | 85 | 1016.8 |
| 20260506091221 | 30 | 0 | 0.0 | 0.0 | 0.00 | 0.00 | 0.00 | 85 | 1016.9 |
| 20260506090720 | 30 | 0 | 0.0 | 0.0 | 0.00 | 0.00 | 0.00 | 85 | 1016.8 |
| 20260506090220 | 31 | 0 | 0.0 | 0.0 | 0.00 | 0.00 | 0.00 | 84 | 1016.7 |
| 20260506084719 | 31 | 345 | 1.0 | 3.0 | 0.00 | 0.00 | 0.00 | 84 | 1016.5 |
| 20260506083719 | 30 | 0 | 0.0 | 0.0 | 0.00 | 0.00 | 0.00 | 83 | 1016.6 |
| 20260506081217 | 30 | 0 | 0.0 | 0.0 | 0.00 | 0.00 | 0.00 | 84 | 1016.6 |
| 20260506080217 | 30 | 0 | 0.0 | 0.0 | 0.00 | 0.00 | 0.00 | 83 | 1016.6 |
| 20260506073215 | 32 | 0 | 0.0 | 0.0 | 0.00 | 0.00 | 0.00 | 80 | 1016.3 |
| 20260506072214 | 32 | 0 | 0.0 | 0.0 | 0.00 | 0.00 | 0.00 | 78 | 1016.4 |
| 20260506071214 | 33 | 0 | 0.0 | 0.0 | 0.00 | 0.00 | 0.00 | 77 | 1016.4 |
| 20260506070713 | 33 | 0 | 0.0 | 0.0 | 0.00 | 0.00 | 0.00 | 76 | 1016.4 |
| 20260506060710 | 35 | 294 | 4.0 | 6.0 | 0.00 | 0.00 | 0.00 | 69 | 1016.4 |
| 20260506051207 | 36 | 315 | 4.0 | 5.0 | 0.00 | 0.00 | 0.00 | 67 | 1016.1 |
| 20260506050707 | 36 | 295 | 3.0 | 5.0 | 0.00 | 0.00 | 0.00 | 66 | 1016.0 |